SCP
0 0 0 0 0 0 0 0 0 0 0 0 0 0 0 0 0 0 0 0 0 0 0 0 0 0 0 0 0 0 0 0 0 0 0 0 0 0 0 0 0 0 0 0
0 0 0 0 0 0 0 0 0 0 0 0 0 0 0 0 0 0 0 0 0 0 0 0 0 0 0 0 0 0 0 0 0 0 0 0 0 0 0 0 0 0 0 0
0 0 0 0 0 0 0 0 0 0 0 0 0 0 0 0 0 0 0 0 0 0 0 0 0 0 0 0 0 0 0 0 0 0 0 0 0 0 0 0 0 -0 0 0
0 0 0 0 0 0 0 0 0 0 0 0 0 0 0 0 0 0 0 0 0 0 0 0 0 0 0 -0 0 0 0 0 0 0 0 0 0 0 0 0 0 -0 0 0
0 0 0 0 0 0 0 0 0 0 0 0 0 0 0 0 0 0 0 0 0 0 0 0 0 -0 -0 -0 -0 -0 0 0 0 0 0 0 -0 -0 0 0 -0 0 0 -0
0 0 0 0 0 0 0 0 0 0 0 0 0 0 0 0 0 0 0 0 0 0 0 0 0 -0 -0 0 0 0 0 0 0 0 0 0 0 0 -0 0 0 0 0 0
0 0 0 0 0 0 0 0 0 0 0 0 0 0 0 0 0 0 0 0 0 0 0 0 0 -0 -0 0 -0 0 0 0 0 -0 0 0 0 0 -0 -0 -0 -0 -0 -0
0 0 0 0 0 0 0 0 0 0 0 0 0 0 0 0 0 0 0 0 0 0 -0 0 0 -0 0 -0 -0 0 -0 -0 0 -0 0 0 -0 -0 -0 -0 -0 -0 -0 -0
0 0 0 0 0 0 0 0 0 0 0 0 0 0 0 0 0 0 0 0 0 -0 -0 -0 -0 0 -0 -0 -0 -0 0 0 0 0 -0 -0 -0 -0 -0 -0 -0 -0 0 0
0 0 0 0 0 0 0 0 0 0 0 0 0 0 0 0 0 -0 -0 -0 -0 0 0 -0 0 0 0 -0 -0 0 0 -0 -0 -0 -0 -0 -0 -0 -0 -0 -0 -0 -0 -0
0 0 0 0 0 0 0 0 0 0 0 0 0 0 0 -0 -0 -0 -0 0 -0 -0 -0 -0 -0 0 -0 -0 0 -0 -0 -0 -0 -0 -0 -0 -0 0 -0 -0 -0 0 0 -0
0 0 0 0 0 0 0 0 0 0 0 0 0 0 0 -0 0 -0 -0 -0 -0 0 0 -0 -0 -0 -0 -0 -0 -0 -0 -0 -0 -0 -0 -0 0 0 0 -0 0 -0 -0 -0
0 0 0 0 0 0 0 0 0 0 0 0 0 0 -0 0 -0 -0 -0 0 0 0 -0 -0 -0 -0 -0 -0 -0 -0 -0 -0 0 0 0 0 0 0 0 0 0 -0 -0 -0
0 0 0 0 0 0 0 0 0 0 0 0 0 -0 0 0 -0 0 0 0 0 -0 -0 -0 -0 -0 -0 -0 -0 -0 0 0 0 0 0 0 0 0 0 0 0 0 0 0
0 0 0 0 0 0 0 0 0 0 0 -0 -0 0 0 -0 0 0 0 0 0 0 0 -0 -0 -0 -0 -0 0 0 0 0 0 0 0 0 0 0 0 0 0 0 0 0
0 0 0 0 0 0 0 0 -0 -0 -0 -0 0 -0 0 0 0 0 0 0 0 -0 -0 -0 -0 0 0 0 0 0 0 0 0 0 0 0 0 0 0 0 0 0 0 0
0 0 0 0 0 0 0 0 -0 -0 0 0 -0 0 0 0 0 0 0 0 -0 -0 -0 0 0 0 0 0 0 0 0 0 0 0 0 0 0 0 0 0 0 0 0 0
0 0 0 0 0 0 0 0 -0 0 0 -0 0 0 0 0 0 0 0 0 0 0 0 0 0 0 0 0 0 0 0 0 0 0 0 0 0 0 0 0 0 0 0 0
0 0 0 0 0 0 0 -0 0 -0 0 0 0 0 0 0 0 0 0 0 0 0 0 0 0 0 0 0 0 0 0 0 0 0 0 0 0 0 0 0 0 0 0 0
0 0 0 0 0 0 -0 0 -0 0 0 0 0 0 0 0 0 0 0 0 0 0 0 0 0 0 0 0 0 0 0 0 0 0 0 0 0 0 0 0 0 0 0 0
0 0 0 0 0 0 0 -0 -0 0 0 0 0 0 0 0 0 0 0 0 0 0 0 0 0 0 0 0 0 0 0 0 0 0 0 0 0 0 0 0 0 0 0 0
0 0 0 0 0 -0 0 0 0 0 0 0 0 0 0 0 0 0 0 0 0 0 0 0 0 0 0 0 0 0 0 0 0 0 0 0 0 0 0 0 0 0 0 0
0 0 -0 -0 0 -0 0 0 0 0 0 0 0 0 0 0 0 0 0 0 0 0 0 0 0 0 0 0 0 0 0 0 0 0 0 0 0 0 0 0 0 0 0 0
0 0 -0 -0 -0 0 0 0 0 0 0 0 0 0 0 0 0 0 0 0 0 0 0 0 0 0 0 0 0 0 0 0 0 0 0 0 0 0 0 0 0 0 0 0
0 -0 -0 -0 -0 0 0 0 0 0 0 0 0 0 0 0 0 0 0 0 0 0 0 0 0 0 0 0 0 0 0 0 0 0 0 0 0 0 0 0 0 0 0 0
-0 -0 -0 -0 0 0 0 0 0 0 0 0 0 0 0 0 0 0 0 0 0 0 0 0 0 0 0 0 0 0 0 0 0 0 0 0 0 0 0 0 0 0 0 0
-0 -0 -0 -0 0 0 0 0 0 0 0 0 0 0 0 0 0 0 0 0 0 0 0 0 0 0 0 0 0 0 0 0 0 0 0 0 0 0 0 0 0 0 0 0
Wind_Speed_500mb
8 13 7 5 13 14 8 14 9 12 14 9 7 7 15 19 17 20 27 41 49 54 67 78 68 63 73 65 61 47 51 47 49 47 32 28 28 19 15 17 8 4 4 5
6 12 7 10 15 15 12 4 2 6 3 3 9 15 23 30 25 25 35 45 49 63 72 74 61 68 59 54 55 38 37 40 41 39 29 24 16 15 9 7 8 11 16 19
7 8 9 7 8 8 3 2 4 9 9 5 9 21 32 33 29 32 43 44 55 66 74 66 61 58 56 51 39 31 39 43 29 31 22 18 16 13 12 14 18 17 19 20
4 10 7 10 8 0 8 3 2 3 7 17 30 32 36 37 38 38 42 45 61 66 73 58 59 64 43 40 32 29 33 30 26 20 15 14 18 23 27 26 23 24 20 20
6 4 12 2 5 2 0 10 11 9 16 27 29 28 31 43 41 39 41 49 59 67 60 58 57 40 29 32 32 26 25 24 17 14 18 27 34 31 28 25 24 28 24 24
4 5 7 7 4 13 7 10 25 17 20 23 19 13 22 33 31 45 42 53 59 68 55 54 41 22 27 28 25 26 19 14 22 35 39 33 27 29 28 28 27 27 32 28
5 5 12 11 14 6 7 10 9 16 23 30 13 39 50 45 47 46 56 48 64 55 50 39 25 16 23 25 24 17 16 29 38 29 29 31 34 32 28 27 28 34 34 29
4 4 12 4 2 4 10 19 25 34 38 36 38 38 42 53 59 55 42 53 54 46 39 27 19 15 16 19 16 21 37 34 29 27 26 25 29 30 33 28 34 37 28 34
13 10 8 7 14 11 18 27 31 28 24 28 37 48 56 56 48 47 48 42 46 43 26 14 12 10 10 15 27 39 31 28 31 36 30 29 30 30 36 36 28 24 25 33
5 5 10 27 16 22 21 18 17 20 26 37 49 56 53 54 62 51 38 36 41 27 9 14 10 11 22 35 34 32 34 33 31 29 31 30 32 38 34 39 32 30 36 33
7 15 20 12 26 25 20 19 20 28 39 51 52 46 51 56 49 39 37 27 15 7 7 11 15 30 43 41 38 35 35 36 31 26 32 40 38 40 34 31 30 35 33 29
10 21 19 33 26 20 20 22 30 41 53 48 38 44 43 41 31 31 27 17 9 8 13 18 35 51 42 39 33 32 32 28 30 32 34 31 34 32 30 28 24 25 23 27
18 31 28 25 16 17 17 26 38 45 44 41 40 34 32 31 28 25 16 11 9 13 20 36 51 44 41 31 30 27 26 34 36 33 28 30 32 32 39 37 41 37 30 29
35 22 13 11 12 12 23 34 41 40 32 34 34 27 25 25 30 15 3 9 17 22 35 50 49 42 34 32 29 30 35 31 27 23 24 22 23 25 26 27 27 31 30 26
7 5 5 7 14 23 32 41 39 34 32 31 25 20 20 26 21 18 20 23 25 38 52 51 43 41 35 30 28 31 27 23 20 17 14 14 15 22 30 31 29 31 28 29
2 6 13 21 27 36 39 35 31 31 33 27 20 12 19 12 16 24 30 28 43 51 51 46 44 35 25 23 19 16 11 3 7 11 23 28 24 25 28 29 29 27 31 32
9 19 27 31 35 35 29 27 27 29 23 19 9 9 12 13 24 27 28 42 61 55 47 39 32 27 25 20 14 16 21 28 32 32 28 24 26 31 33 36 33 31 34 35
21 24 29 32 31 26 26 25 26 20 17 9 8 9 12 23 28 34 58 54 53 46 35 32 25 23 23 21 27 41 44 44 36 32 26 27 30 31 30 33 36 35 38 36
30 34 32 26 21 20 21 25 21 15 8 9 11 12 21 28 35 56 45 49 39 37 32 26 25 20 20 26 35 32 30 28 30 33 31 33 35 37 39 37 38 40 41 46
37 38 31 24 18 18 23 18 10 6 11 11 15 18 30 36 53 45 47 43 38 31 25 25 23 26 29 30 24 21 28 34 33 32 34 36 36 35 36 41 46 49 48 50
37 35 25 18 18 21 18 11 5 12 14 17 19 26 34 47 45 48 45 41 35 26 23 22 24 30 30 21 21 24 28 28 31 33 33 33 32 34 35 37 42 48 51 48
35 30 20 16 19 19 12 9 9 12 19 25 25 32 40 48 45 47 41 35 28 23 23 27 28 26 28 27 27 26 25 26 29 29 29 30 34 36 38 41 42 45 46 48
31 23 13 14 19 11 8 8 12 20 26 27 33 37 39 48 47 44 41 29 24 31 31 25 24 30 29 25 24 24 25 26 27 29 31 34 36 39 42 44 46 45 44 44
27 19 9 14 13 6 6 11 16 19 24 32 36 37 44 57 48 44 34 31 31 32 30 28 30 26 20 22 24 24 24 26 27 28 30 33 35 38 42 44 45 45 43 40
25 16 6 12 11 5 5 10 18 20 28 33 36 39 47 59 50 41 34 34 37 33 31 31 23 18 19 22 24 24 24 24 28 31 32 34 36 39 43 45 45 44 44 43
21 11 7 10 4 5 6 12 19 25 32 36 40 50 60 60 46 40 38 37 32 29 25 23 20 19 20 20 21 23 26 29 28 28 30 34 37 39 42 44 45 46 46 45
18 10 7 8 3 8 9 12 21 30 35 43 59 65 66 53 45 42 40 34 26 23 26 22 20 19 21 26 25 26 28 26 28 30 32 34 37 41 42 43 44 44 44 43
Wind_Direction_500mb
236 239 231 270 296 309 275 230 187 271 203 216 248 274 310 309 297 304 318 325 331 332 331 335 332 327 327 325 323 324 324 325 328 333 320 312 316 327 335 349 312 305 342 349
284 280 315 279 273 271 274 317 56 90 299 242 292 313 317 307 284 299 308 320 330 334 336 335 329 330 330 331 335 332 330 327 327 339 345 353 354 359 19 48 60 51 63 54
262 337 304 340 234 243 190 300 160 200 232 295 283 278 289 296 261 288 310 323 332 333 335 332 331 334 331 334 337 335 331 327 331 334 346 2 14 36 48 56 82 77 80 70
244 3 3 246 296 170 132 191 127 99 252 255 251 272 290 289 268 291 314 320 328 332 333 331 331 329 327 340 336 333 333 333 335 346 16 50 65 67 69 71 71 64 57 51
130 180 287 2 24 30 213 265 204 224 253 274 282 289 277 302 285 298 310 318 326 331 329 327 330 332 338 343 344 338 334 340 2 45 75 90 71 63 66 74 67 67 59 58
145 133 274 242 232 352 124 282 200 229 277 294 309 307 298 316 309 309 306 317 322 329 326 326 332 337 348 353 353 346 360 43 79 90 87 79 69 66 66 74 69 64 65 72
131 233 283 238 239 336 71 249 317 300 303 298 241 279 304 309 311 312 313 315 323 324 323 329 333 322 347 355 353 7 68 96 95 82 75 78 74 75 73 70 77 81 78 74
108 241 271 313 19 198 243 304 307 305 300 298 298 304 309 311 316 320 314 319 326 322 326 333 334 326 338 352 22 79 103 98 85 84 76 65 83 74 64 77 67 80 74 68
176 218 241 330 248 272 289 288 295 296 303 309 313 318 320 318 318 314 308 313 322 324 333 2 348 13 19 54 95 103 85 78 75 80 85 79 72 64 65 62 71 61 80 73
57 267 250 325 295 299 308 295 292 304 317 322 323 325 320 321 323 328 323 312 310 324 356 16 35 60 83 103 92 81 83 86 83 77 77 76 71 76 66 71 74 61 64 73
258 280 296 278 300 309 298 297 311 325 330 330 327 324 325 327 336 334 325 322 324 351 36 59 73 91 104 95 92 93 91 87 81 81 84 86 76 69 69 74 74 73 67 74
223 291 277 288 302 287 287 312 329 333 334 338 330 329 333 336 344 349 359 2 31 96 87 87 102 111 106 105 106 103 96 90 85 90 90 86 77 74 63 65 72 84 83 69
274 295 280 279 263 280 315 326 329 332 336 341 336 332 338 341 339 341 351 6 98 94 97 113 119 119 117 114 99 92 95 93 92 94 88 81 78 73 79 68 95 72 76 83
285 271 265 268 310 298 314 324 330 334 335 333 327 338 346 336 339 350 115 123 117 108 120 126 126 120 112 101 100 100 95 93 91 87 80 70 58 69 80 75 87 87 81 71
246 259 314 310 306 312 322 330 333 340 340 333 340 346 345 356 21 91 122 124 112 120 129 128 124 114 108 104 98 92 96 93 88 87 42 36 67 86 91 97 99 99 83 78
195 341 336 333 333 330 331 335 343 340 337 341 351 11 3 46 87 108 120 118 121 134 129 126 118 111 93 79 80 84 91 122 8 69 85 98 83 71 79 86 93 95 88 72
335 329 329 330 332 332 336 340 334 332 340 348 19 36 41 89 112 114 112 126 138 129 126 117 100 81 75 72 58 70 82 94 101 106 96 79 73 68 68 74 81 87 81 77
358 344 337 334 336 344 344 338 334 344 352 30 84 52 100 119 114 116 133 136 134 127 117 97 75 58 72 83 96 100 95 103 109 98 88 82 75 66 68 71 77 89 92 82
350 344 339 347 344 346 344 336 342 354 76 94 92 84 115 117 121 140 138 135 128 118 103 79 52 65 91 109 108 97 97 103 98 91 78 77 71 68 70 74 80 84 93 92
343 348 352 352 357 350 341 342 5 55 114 116 112 113 121 122 142 140 140 129 122 111 86 58 75 90 112 115 105 96 107 98 88 85 80 75 71 69 71 76 81 83 92 92
344 348 355 2 357 345 354 22 45 125 120 132 125 125 127 139 144 145 140 134 121 95 69 92 107 122 121 100 113 114 108 98 84 80 70 66 67 69 75 82 87 89 93 94
342 345 358 8 355 356 21 50 122 131 141 142 141 135 137 150 150 146 141 130 108 89 103 119 119 108 112 116 112 106 104 94 81 77 73 73 74 74 78 85 93 96 97 94
338 345 358 348 353 16 43 101 124 136 144 147 144 140 146 157 154 147 136 122 106 115 124 122 120 122 118 110 94 96 92 85 81 81 79 73 70 74 79 85 90 98 99 98
336 345 352 347 2 30 62 118 124 133 144 147 149 151 158 163 148 142 131 117 119 119 121 132 128 119 101 97 87 86 87 84 78 75 76 76 76 76 80 85 92 95 98 98
339 345 343 348 2 52 83 132 135 145 151 156 160 160 161 162 148 139 124 123 129 122 127 127 118 108 102 94 88 87 87 85 86 84 81 78 78 81 81 83 87 92 93 93
339 344 331 334 342 129 130 146 152 151 154 155 156 153 154 153 150 138 128 136 141 138 132 123 120 112 108 98 91 90 90 89 86 84 84 87 88 86 85 84 85 88 89 90
332 328 309 334 227 151 150 159 158 153 152 152 146 147 151 153 150 141 141 139 137 139 141 121 119 110 104 105 96 93 97 92 92 90 92 94 91 89 88 87 88 88 89 89
Wind_Speed_850mb
8 13 7 5 13 14 8 14 9 12 14 9 7 7 15 19 17 20 27 41 49 54 67 78 68 63 73 65 61 47 51 47 49 47 32 28 28 19 15 17 8 4 4 5
6 12 7 10 15 15 12 4 2 6 3 3 9 15 23 30 25 25 35 45 49 63 72 74 61 68 59 54 55 38 37 40 41 39 29 24 16 15 9 7 8 11 16 19
7 8 9 7 8 8 3 2 4 9 9 5 9 21 32 33 29 32 43 44 55 66 74 66 61 58 56 51 39 31 39 43 29 31 22 18 16 13 12 14 18 17 19 20
4 10 7 10 8 0 8 3 2 3 7 17 30 32 36 37 38 38 42 45 61 66 73 58 59 64 43 40 32 29 33 30 26 20 15 14 18 23 27 26 23 24 20 20
6 4 12 2 5 2 0 10 11 9 16 27 29 28 31 43 41 39 41 49 59 67 60 58 57 40 29 32 32 26 25 24 17 14 18 27 34 31 28 25 24 28 24 24
4 5 7 7 4 13 7 10 25 17 20 23 19 13 22 33 31 45 42 53 59 68 55 54 41 22 27 28 25 26 19 14 22 35 39 33 27 29 28 28 27 27 32 28
5 5 12 11 14 6 7 10 9 16 23 30 13 39 50 45 47 46 56 48 64 55 50 39 25 16 23 25 24 17 16 29 38 29 29 31 34 32 28 27 28 34 34 29
4 4 12 4 2 4 10 19 25 34 38 36 38 38 42 53 59 55 42 53 54 46 39 27 19 15 16 19 16 21 37 34 29 27 26 25 29 30 33 28 34 37 28 34
13 10 8 7 14 11 18 27 31 28 24 28 37 48 56 56 48 47 48 42 46 43 26 14 12 10 10 15 27 39 31 28 31 36 30 29 30 30 36 36 28 24 25 33
5 5 10 27 16 22 21 18 17 20 26 37 49 56 53 54 62 51 38 36 41 27 9 14 10 11 22 35 34 32 34 33 31 29 31 30 32 38 34 39 32 30 36 33
7 15 20 12 26 25 20 19 20 28 39 51 52 46 51 56 49 39 37 27 15 7 7 11 15 30 43 41 38 35 35 36 31 26 32 40 38 40 34 31 30 35 33 29
10 21 19 33 26 20 20 22 30 41 53 48 38 44 43 41 31 31 27 17 9 8 13 18 35 51 42 39 33 32 32 28 30 32 34 31 34 32 30 28 24 25 23 27
18 31 28 25 16 17 17 26 38 45 44 41 40 34 32 31 28 25 16 11 9 13 20 36 51 44 41 31 30 27 26 34 36 33 28 30 32 32 39 37 41 37 30 29
35 22 13 11 12 12 23 34 41 40 32 34 34 27 25 25 30 15 3 9 17 22 35 50 49 42 34 32 29 30 35 31 27 23 24 22 23 25 26 27 27 31 30 26
7 5 5 7 14 23 32 41 39 34 32 31 25 20 20 26 21 18 20 23 25 38 52 51 43 41 35 30 28 31 27 23 20 17 14 14 15 22 30 31 29 31 28 29
2 6 13 21 27 36 39 35 31 31 33 27 20 12 19 12 16 24 30 28 43 51 51 46 44 35 25 23 19 16 11 3 7 11 23 28 24 25 28 29 29 27 31 32
9 19 27 31 35 35 29 27 27 29 23 19 9 9 12 13 24 27 28 42 61 55 47 39 32 27 25 20 14 16 21 28 32 32 28 24 26 31 33 36 33 31 34 35
21 24 29 32 31 26 26 25 26 20 17 9 8 9 12 23 28 34 58 54 53 46 35 32 25 23 23 21 27 41 44 44 36 32 26 27 30 31 30 33 36 35 38 36
30 34 32 26 21 20 21 25 21 15 8 9 11 12 21 28 35 56 45 49 39 37 32 26 25 20 20 26 35 32 30 28 30 33 31 33 35 37 39 37 38 40 41 46
37 38 31 24 18 18 23 18 10 6 11 11 15 18 30 36 53 45 47 43 38 31 25 25 23 26 29 30 24 21 28 34 33 32 34 36 36 35 36 41 46 49 48 50
37 35 25 18 18 21 18 11 5 12 14 17 19 26 34 47 45 48 45 41 35 26 23 22 24 30 30 21 21 24 28 28 31 33 33 33 32 34 35 37 42 48 51 48
35 30 20 16 19 19 12 9 9 12 19 25 25 32 40 48 45 47 41 35 28 23 23 27 28 26 28 27 27 26 25 26 29 29 29 30 34 36 38 41 42 45 46 48
31 23 13 14 19 11 8 8 12 20 26 27 33 37 39 48 47 44 41 29 24 31 31 25 24 30 29 25 24 24 25 26 27 29 31 34 36 39 42 44 46 45 44 44
27 19 9 14 13 6 6 11 16 19 24 32 36 37 44 57 48 44 34 31 31 32 30 28 30 26 20 22 24 24 24 26 27 28 30 33 35 38 42 44 45 45 43 40
25 16 6 12 11 5 5 10 18 20 28 33 36 39 47 59 50 41 34 34 37 33 31 31 23 18 19 22 24 24 24 24 28 31 32 34 36 39 43 45 45 44 44 43
21 11 7 10 4 5 6 12 19 25 32 36 40 50 60 60 46 40 38 37 32 29 25 23 20 19 20 20 21 23 26 29 28 28 30 34 37 39 42 44 45 46 46 45
18 10 7 8 3 8 9 12 21 30 35 43 59 65 66 53 45 42 40 34 26 23 26 22 20 19 21 26 25 26 28 26 28 30 32 34 37 41 42 43 44 44 44 43
Wind_Direction_850mb
236 239 231 270 296 309 275 230 187 271 203 216 248 274 310 309 297 304 318 325 331 332 331 335 332 327 327 325 323 324 324 325 328 333 320 312 316 327 335 349 312 305 342 349
284 280 315 279 273 271 274 317 56 90 299 242 292 313 317 307 284 299 308 320 330 334 336 335 329 330 330 331 335 332 330 327 327 339 345 353 354 359 19 48 60 51 63 54
262 337 304 340 234 243 190 300 160 200 232 295 283 278 289 296 261 288 310 323 332 333 335 332 331 334 331 334 337 335 331 327 331 334 346 2 14 36 48 56 82 77 80 70
244 3 3 246 296 170 132 191 127 99 252 255 251 272 290 289 268 291 314 320 328 332 333 331 331 329 327 340 336 333 333 333 335 346 16 50 65 67 69 71 71 64 57 51
130 180 287 2 24 30 213 265 204 224 253 274 282 289 277 302 285 298 310 318 326 331 329 327 330 332 338 343 344 338 334 340 2 45 75 90 71 63 66 74 67 67 59 58
145 133 274 242 232 352 124 282 200 229 277 294 309 307 298 316 309 309 306 317 322 329 326 326 332 337 348 353 353 346 360 43 79 90 87 79 69 66 66 74 69 64 65 72
131 233 283 238 239 336 71 249 317 300 303 298 241 279 304 309 311 312 313 315 323 324 323 329 333 322 347 355 353 7 68 96 95 82 75 78 74 75 73 70 77 81 78 74
108 241 271 313 19 198 243 304 307 305 300 298 298 304 309 311 316 320 314 319 326 322 326 333 334 326 338 352 22 79 103 98 85 84 76 65 83 74 64 77 67 80 74 68
176 218 241 330 248 272 289 288 295 296 303 309 313 318 320 318 318 314 308 313 322 324 333 2 348 13 19 54 95 103 85 78 75 80 85 79 72 64 65 62 71 61 80 73
57 267 250 325 295 299 308 295 292 304 317 322 323 325 320 321 323 328 323 312 310 324 356 16 35 60 83 103 92 81 83 86 83 77 77 76 71 76 66 71 74 61 64 73
258 280 296 278 300 309 298 297 311 325 330 330 327 324 325 327 336 334 325 322 324 351 36 59 73 91 104 95 92 93 91 87 81 81 84 86 76 69 69 74 74 73 67 74
223 291 277 288 302 287 287 312 329 333 334 338 330 329 333 336 344 349 359 2 31 96 87 87 102 111 106 105 106 103 96 90 85 90 90 86 77 74 63 65 72 84 83 69
274 295 280 279 263 280 315 326 329 332 336 341 336 332 338 341 339 341 351 6 98 94 97 113 119 119 117 114 99 92 95 93 92 94 88 81 78 73 79 68 95 72 76 83
285 271 265 268 310 298 314 324 330 334 335 333 327 338 346 336 339 350 115 123 117 108 120 126 126 120 112 101 100 100 95 93 91 87 80 70 58 69 80 75 87 87 81 71
246 259 314 310 306 312 322 330 333 340 340 333 340 346 345 356 21 91 122 124 112 120 129 128 124 114 108 104 98 92 96 93 88 87 42 36 67 86 91 97 99 99 83 78
195 341 336 333 333 330 331 335 343 340 337 341 351 11 3 46 87 108 120 118 121 134 129 126 118 111 93 79 80 84 91 122 8 69 85 98 83 71 79 86 93 95 88 72
335 329 329 330 332 332 336 340 334 332 340 348 19 36 41 89 112 114 112 126 138 129 126 117 100 81 75 72 58 70 82 94 101 106 96 79 73 68 68 74 81 87 81 77
358 344 337 334 336 344 344 338 334 344 352 30 84 52 100 119 114 116 133 136 134 127 117 97 75 58 72 83 96 100 95 103 109 98 88 82 75 66 68 71 77 89 92 82
350 344 339 347 344 346 344 336 342 354 76 94 92 84 115 117 121 140 138 135 128 118 103 79 52 65 91 109 108 97 97 103 98 91 78 77 71 68 70 74 80 84 93 92
343 348 352 352 357 350 341 342 5 55 114 116 112 113 121 122 142 140 140 129 122 111 86 58 75 90 112 115 105 96 107 98 88 85 80 75 71 69 71 76 81 83 92 92
344 348 355 2 357 345 354 22 45 125 120 132 125 125 127 139 144 145 140 134 121 95 69 92 107 122 121 100 113 114 108 98 84 80 70 66 67 69 75 82 87 89 93 94
342 345 358 8 355 356 21 50 122 131 141 142 141 135 137 150 150 146 141 130 108 89 103 119 119 108 112 116 112 106 104 94 81 77 73 73 74 74 78 85 93 96 97 94
338 345 358 348 353 16 43 101 124 136 144 147 144 140 146 157 154 147 136 122 106 115 124 122 120 122 118 110 94 96 92 85 81 81 79 73 70 74 79 85 90 98 99 98
336 345 352 347 2 30 62 118 124 133 144 147 149 151 158 163 148 142 131 117 119 119 121 132 128 119 101 97 87 86 87 84 78 75 76 76 76 76 80 85 92 95 98 98
339 345 343 348 2 52 83 132 135 145 151 156 160 160 161 162 148 139 124 123 129 122 127 127 118 108 102 94 88 87 87 85 86 84 81 78 78 81 81 83 87 92 93 93
339 344 331 334 342 129 130 146 152 151 154 155 156 153 154 153 150 138 128 136 141 138 132 123 120 112 108 98 91 90 90 89 86 84 84 87 88 86 85 84 85 88 89 90
332 328 309 334 227 151 150 159 158 153 152 152 146 147 151 153 150 141 141 139 137 139 141 121 119 110 104 105 96 93 97 92 92 90 92 94 91 89 88 87 88 88 89 89